Escanaba, MI

8:31 AM EDT on March 25, 2017 (GMT -0400)
Delta County

Weather History for KESC - November, 2013

Change the Weather History Date:

Friday, November 29, 2013

  Actual Average Record
Temperature  
Mean Temperature 20 °F -  
Max Temperature 33 °F 33 °F 51 °F (1998)
Min Temperature 8 °F 20 °F -6 °F (1976)
Degree Days  
Heating Degree Days 45    
Moisture  
Dew Point 15 °F    
Average Humidity 78    
Maximum Humidity 100    
Minimum Humidity 59    
Precipitation  
Precipitation 0.00 in - - ()
Sea Level Pressure  
Sea Level Pressure 30.48 in    
Wind  
Wind Speed 5 mph (WSW)    
Max Wind Speed 17 mph    
Max Gust Speed 24 mph    
Visibility 10 miles    
Events      
Averages and records for this station are not official NWS values.
T = Trace of Precipitation, MM = Missing Value Source: NWS Daily Summary

Daily Weather History Graph

Daily Weather History Graph

Search for Another Location

Airport or City:

Trip Planner

Search our weather history database for the weather conditions in past years. The results will help you decide how hot, cold, wet, or windy it might be!

Date:

Astronomy

Nov. 29, 2013 Rise Set
Actual Time 8:06 AM EST 5:06 PM EST
Civil Twilight 7:33 AM EST 5:40 PM EST
Nautical Twilight 6:56 AM EST 6:17 PM EST
Astronomical Twilight 6:20 AM EST 6:52 PM EST
Moon 4:01 AM EST (11/29) 2:59 PM EST (11/29)
Length of Visible Light 10h 06m
Length of Day
8h 59m
Waning Crescent, 14% of the Moon is Illuminated
Nov 29
Waning Crescent
Dec 2
New
Dec 9
First Quarter
Dec 17
Full
Dec 25
Last Quarter

Hourly Weather History & Observations

Time (EST) Temp. Windchill Dew Point Humidity Pressure Visibility Wind Dir Wind Speed Gust Speed Precip Events Conditions
12:15 AM 21.2 °F 13.6 °F 17.6 °F 86% 30.43 in 10.0 mi NNW 5.8 mph - N/A   Overcast
12:35 AM 21.2 °F 13.6 °F 17.6 °F 86% 30.44 in 10.0 mi NW 5.8 mph - N/A   Overcast
12:55 AM 21.2 °F 14.9 °F 15.8 °F 80% 30.44 in 10.0 mi NNW 4.6 mph - N/A   Overcast
1:15 AM 19.4 °F - 17.6 °F 93% 30.44 in 10.0 mi Calm Calm - N/A   Overcast
1:35 AM 19.4 °F 14.3 °F 15.8 °F 86% 30.45 in 10.0 mi NNE 3.5 mph - N/A   Overcast
1:55 AM 19.4 °F 14.3 °F 17.6 °F 93% 30.45 in 10.0 mi NNW 3.5 mph - N/A   Overcast
2:15 AM 19.4 °F 12.8 °F 15.8 °F 86% 30.45 in 10.0 mi North 4.6 mph - N/A   Partly Cloudy
2:35 AM 15.8 °F - 12.2 °F 86% 30.46 in 10.0 mi Calm Calm - N/A   Clear
2:55 AM 17.6 °F 9.3 °F 17.6 °F 100% 30.46 in 10.0 mi NNW 5.8 mph - N/A   Partly Cloudy
3:15 AM 12.2 °F 4.3 °F 6.8 °F 79% 30.47 in 10.0 mi NNW 4.6 mph - N/A   Clear
3:35 AM 12.2 °F - 10.4 °F 92% 30.47 in 10.0 mi Calm Calm - N/A   Partly Cloudy
3:55 AM 12.2 °F 2.9 °F 10.4 °F 92% 30.48 in 10.0 mi NW 5.8 mph - N/A   Mostly Cloudy
4:15 AM 14.0 °F 8.2 °F 8.6 °F 79% 30.48 in 10.0 mi NW 3.5 mph - N/A   Overcast
4:35 AM 15.8 °F 8.6 °F 14.0 °F 93% 30.49 in 10.0 mi NW 4.6 mph - N/A   Overcast
4:55 AM 15.8 °F 10.2 °F 12.2 °F 86% 30.49 in 10.0 mi NW 3.5 mph - N/A   Mostly Cloudy
5:15 AM 15.8 °F 10.2 °F 10.4 °F 79% 30.49 in 10.0 mi NW 3.5 mph - N/A   Overcast
5:35 AM 14.0 °F 5.1 °F 12.2 °F 93% 30.49 in 10.0 mi NW 5.8 mph - N/A   Mostly Cloudy
5:55 AM 14.0 °F 8.2 °F 12.2 °F 93% 30.50 in 10.0 mi NW 3.5 mph - N/A   Partly Cloudy
6:15 AM 12.2 °F - 8.6 °F 85% 30.50 in 10.0 mi Calm Calm - N/A   Clear
6:35 AM 10.4 °F 4.0 °F 8.6 °F 92% 30.51 in 10.0 mi NW 3.5 mph - N/A   Clear
6:55 AM 10.4 °F 4.0 °F 8.6 °F 92% 30.51 in 10.0 mi NW 3.5 mph - N/A   Clear
7:15 AM 8.6 °F - 8.6 °F 100% 30.52 in 10.0 mi Calm Calm - N/A   Clear
7:35 AM 8.6 °F - 5.0 °F 85% 30.53 in 10.0 mi Calm Calm - N/A   Clear
7:55 AM 10.4 °F 2.2 °F 6.8 °F 85% 30.53 in 10.0 mi NW 4.6 mph - N/A   Clear
8:15 AM 8.6 °F - 5.0 °F 85% 30.53 in 9.0 mi Calm Calm - N/A   Clear
8:35 AM 8.6 °F 0.1 °F 6.8 °F 92% 30.54 in 10.0 mi NW 4.6 mph - N/A   Clear
8:55 AM 10.4 °F 4.0 °F 5.0 °F 79% 30.55 in 10.0 mi NW 3.5 mph - N/A   Clear
9:15 AM 12.2 °F 4.3 °F 10.4 °F 92% 30.55 in 10.0 mi NW 4.6 mph - N/A   Clear
9:35 AM 12.2 °F 4.3 °F 10.4 °F 92% 30.56 in 10.0 mi NW 4.6 mph - N/A   Clear
9:55 AM 15.8 °F 7.2 °F 14.0 °F 93% 30.56 in 10.0 mi WNW 5.8 mph - N/A   Clear
10:15 AM 17.6 °F 9.3 °F 12.2 °F 79% 30.57 in 10.0 mi WNW 5.8 mph - N/A   Clear
10:35 AM 19.4 °F 12.8 °F 15.8 °F 86% 30.57 in 10.0 mi WNW 4.6 mph - N/A   Partly Cloudy
10:55 AM 21.2 °F 16.4 °F 17.6 °F 86% 30.57 in 10.0 mi NW 3.5 mph - N/A   Partly Cloudy
11:15 AM 23.0 °F 18.4 °F 15.8 °F 74% 30.57 in 10.0 mi WNW 3.5 mph - N/A   Clear
11:35 AM 24.8 °F 20.5 °F 17.6 °F 74% 30.57 in 10.0 mi WNW 3.5 mph - N/A   Clear
11:55 AM 24.8 °F 20.5 °F 17.6 °F 74% 30.56 in 10.0 mi WNW 3.5 mph - N/A   Clear
12:15 PM 26.6 °F 21.2 °F 15.8 °F 64% 30.55 in 10.0 mi West 4.6 mph - N/A   Clear
12:35 PM 26.6 °F 22.6 °F 17.6 °F 69% 30.54 in 10.0 mi SW 3.5 mph - N/A   Clear
12:55 PM 26.6 °F 22.6 °F 17.6 °F 69% 30.54 in 10.0 mi WSW 3.5 mph - N/A   Scattered Clouds
1:15 PM - - - N/A% - - North - - N/A   Unknown
1:35 PM - - - N/A% 30.53 in - North - - N/A   Unknown
1:55 PM - - - N/A% 30.52 in - SW 5.8 mph - N/A   Unknown
2:35 PM - - - N/A% - - North - - N/A   Unknown
2:55 PM - - - N/A% 30.50 in - SW 5.8 mph - N/A   Unknown
3:35 PM 28.4 °F 23.3 °F 17.6 °F 64% 30.49 in 10.0 mi South 4.6 mph - N/A   Unknown
3:55 PM 28.4 °F 22.2 °F 15.8 °F 59% 30.49 in 10.0 mi SSW 5.8 mph - N/A   Overcast
4:15 PM 28.4 °F 24.6 °F 17.6 °F 64% 30.50 in 10.0 mi SW 3.5 mph - N/A   Overcast
4:35 PM 28.4 °F 24.6 °F 17.6 °F 64% 30.49 in 10.0 mi South 3.5 mph - N/A   Scattered Clouds
4:55 PM 28.4 °F 23.3 °F 17.6 °F 64% 30.49 in 10.0 mi SSW 4.6 mph - N/A   Partly Cloudy
5:15 PM 26.6 °F - 17.6 °F 69% 30.48 in 10.0 mi Calm Calm - N/A   Mostly Cloudy
5:35 PM 28.4 °F 22.2 °F 17.6 °F 64% 30.47 in 10.0 mi South 5.8 mph - N/A   Mostly Cloudy
5:55 PM 28.4 °F 20.4 °F 17.6 °F 64% 30.47 in 10.0 mi South 8.1 mph - N/A   Mostly Cloudy
6:15 PM 28.4 °F 21.2 °F 17.6 °F 64% 30.46 in 10.0 mi SSW 6.9 mph - N/A   Mostly Cloudy
6:35 PM 28.4 °F 20.4 °F 17.6 °F 64% 30.46 in 10.0 mi South 8.1 mph - N/A   Mostly Cloudy
6:55 PM 28.4 °F 19.7 °F 17.6 °F 64% 30.45 in 10.0 mi South 9.2 mph - N/A   Mostly Cloudy
7:15 PM 28.4 °F 19.7 °F 19.4 °F 69% 30.45 in 10.0 mi South 9.2 mph - N/A   Overcast
7:35 PM 28.4 °F 19.1 °F 17.6 °F 64% 30.44 in 10.0 mi South 10.4 mph - N/A   Overcast
7:55 PM 28.4 °F 18.5 °F 17.6 °F 64% 30.43 in 10.0 mi South 11.5 mph 18.4 mph N/A   Overcast
8:15 PM 30.2 °F 20.2 °F 19.4 °F 64% 30.42 in 10.0 mi South 12.7 mph - N/A   Mostly Cloudy
8:35 PM 30.2 °F 19.8 °F 19.4 °F 64% 30.41 in 10.0 mi South 13.8 mph 20.7 mph N/A   Mostly Cloudy
8:55 PM 30.2 °F 18.5 °F 19.4 °F 64% 30.40 in 10.0 mi South 17.3 mph 24.2 mph N/A   Mostly Cloudy
9:15 PM 30.2 °F 20.2 °F 21.2 °F 69% 30.39 in 10.0 mi South 12.7 mph - N/A   Mostly Cloudy
9:35 PM 30.2 °F 18.5 °F 21.2 °F 69% 30.38 in 10.0 mi South 17.3 mph 23.0 mph N/A   Overcast
9:55 PM 30.2 °F 18.9 °F 23.0 °F 75% 30.38 in 10.0 mi SSW 16.1 mph 24.2 mph N/A   Overcast
10:15 PM 30.2 °F 18.9 °F 23.0 °F 75% 30.37 in 10.0 mi South 16.1 mph 23.0 mph N/A   Overcast
10:35 PM 32.0 °F 21.6 °F 23.0 °F 69% 30.37 in 10.0 mi SSW 15.0 mph 20.7 mph N/A   Overcast
10:55 PM 32.0 °F 21.2 °F 24.8 °F 75% 30.36 in 10.0 mi SSW 16.1 mph 24.2 mph N/A   Overcast
11:15 PM 32.0 °F 21.2 °F 23.0 °F 69% 30.35 in 10.0 mi SSW 16.1 mph 24.2 mph N/A   Overcast
11:35 PM 32.0 °F 21.2 °F 23.0 °F 69% 30.34 in 10.0 mi SSW 16.1 mph 24.2 mph N/A   Overcast
11:55 PM 33.8 °F 24.8 °F 24.8 °F 70% 30.33 in 10.0 mi SSW 12.7 mph 20.7 mph N/A   Overcast